Location: Burzi?i
(45.0869°N, 16.0577°E)
Time: 10:41:50
(UTC+00:00)

Cosmos 1825 - Pass Details

Date: 29 October 2020
Orbit: 502 x 508 km, 82.5° (Epoch: 28 November)

Event Time Altitude Azimuth Distance (km) Brightness Sun altitude
Rises 17:10:27 0° 358° (N) 2,624 5.8 -15.1°
Reaches altitude 10° 17:12:42 10° 7° (N) 1,732 4.7 -15.5°
Maximum altitude 17:16:15 38° 76° (ENE) 787 2.6 -16.2°
Enters shadow 17:17:16 31° 113° (ESE) 898 2.9 -16.3°
